This is the latest recevied weather packets stored in our database for station/object KC3AWA. If no packets are shown the sender has not sent any weather packets the latest 10 day(s).
| Time | Temp. | Humidity | Pressure | Rain* | Wind** | Luminosity | Snow |
|---|---|---|---|---|---|---|---|
| 1777981816 | 17.22° C | 65% | 1007.7 hPa | 0 mm | - | 80 W/m² | - |
| 1777981513 | 17.22° C | 65% | 1007.6 hPa | 0 mm | - | 74 W/m² | - |
| 1777981209 | 17.22° C | 65% | 1007.7 hPa | 0 mm | - | 78 W/m² | - |
| 1777980906 | 17.22° C | 66% | 1007.5 hPa | 0 mm | - | 78 W/m² | - |
| 1777980602 | 17.22° C | 66% | 1007.6 hPa | 0 mm | - | 95 W/m² | - |
| 1777980299 | 16.67° C | 66% | 1007.4 hPa | 0 mm | - | 91 W/m² | - |
| 1777979996 | 16.67° C | 66% | 1007.2 hPa | 0 mm | - | 84 W/m² | - |
| 1777979690 | 16.67° C | 67% | 1007.5 hPa | 0 mm | - | 69 W/m² | - |
| 1777979386 | 16.67° C | 67% | 1007.3 hPa | 0 mm | - | 65 W/m² | - |
| 1777979084 | 16.67° C | 68% | 1006.9 hPa | 0 mm | - | 55 W/m² | - |
| 1777978780 | 16.67° C | 66% | 1007 hPa | 0 mm | - | 59 W/m² | - |
| 1777978477 | 16.67° C | 68% | 1007.1 hPa | 0 mm | - | 58 W/m² | - |
| 1777978173 | 16.67° C | 67% | 1007.1 hPa | 0 mm | - | 47 W/m² | - |
| 1777977870 | 16.67° C | 67% | 1007 hPa | 0 mm | - | 37 W/m² | - |
| 1777977567 | 16.11° C | 68% | 1006.9 hPa | 0 mm | - | 28 W/m² | - |
| 1777977264 | 16.11° C | 68% | 1007 hPa | 0 mm | - | 20 W/m² | - |
| 1777976961 | 16.11° C | 68% | 1006.8 hPa | 0 mm | - | 14 W/m² | - |
| 1777976658 | 16.11° C | 68% | 1006.9 hPa | 0 mm | - | 8 W/m² | - |
| 1777976354 | 16.11° C | 67% | 1006.8 hPa | 0 mm | - | 6 W/m² | - |
| 1777976049 | 16.11° C | 68% | 1006.8 hPa | 0 mm | - | 3 W/m² | - |
| 1777975745 | 16.11° C | 67% | 1006.5 hPa | 0 mm | - | 2 W/m² | - |
| 1777975442 | 16.11° C | 67% | 1006.8 hPa | 0 mm | - | 1 W/m² | - |
| 1777975137 | 16.67° C | 66% | 1006.7 hPa | 0 mm | - | 0 W/m² | - |
| 1777974835 | 16.67° C | 66% | 1006.5 hPa | 0 mm | - | 0 W/m² | - |
| 1777974531 | 16.67° C | 67% | 1006.7 hPa | 0 mm | - | 0 W/m² | - |
* Rain latest hour (hover to see other rain measurements)
** Current wind speed in m/s (hover to see current wind gust speed)